Starlink 32191

operational
NORAD ID: 60314 Int'l Des: 2024-133 Owner: SPXS Country: US Constellation: starlink
LEOCIRCULAR

关于 Starlink 32191

正在加载描述...

实时位置

正在加载3D地球...

即将过境

高度历史

Altitude vs Time

uPlot chart will show altitude changes over time

两行轨道根数

1 60314U 24133P 25304.83172012 -.00000570 00000-0 -71198-5 0 9990
2 60314 53.1610 175.4446 0001442 99.2833 260.8331 15.30190555 71913
Epoch: Oct 31, 2025 • Age: 14 hours

当前状态

高度 488.6 km
速度 7.62 km/s
星下点 -38.25°S, 51.9°W
发射日期 Jul 28, 2024
运行时间 1.2 years
类型 internet

技术详情

分类 Payload
质量 730.00 kg
干质量 700.00 kg
总质量 730.00 kg
长度 0.30 m
直径 4.10 m
跨度 29.00 m
形状 Box + pan
制造商 SPXS
平台类型 Starlink V2M
阶段状态 In Orbit
所有者/国家 SPXS/US

大型星座

Loading constellations...